DW8513 Weather Reports


Display with metric or nautical units.
time (UTC)temp
F
wind
direction
speed
MPH
gust
MPH
rain 1hr
in
rain 24hr
in
rain mn
in
humidity
%
barometer
mb
20260503234008 70 10 3.0 9.0 0.00 0.00 0.00 51 1008.9
20260503233506 70 5 2.0 9.0 0.00 0.00 0.00 52 1009.0
20260503233005 70 57 2.0 10.0 0.00 0.00 0.00 53 1009.0
20260503232505 70 26 3.0 10.0 0.00 0.00 0.00 54 1009.1
20260503232004 69 34 2.0 11.0 0.00 0.00 0.00 55 1009.2
20260503231503 69 25 5.0 12.0 0.00 0.00 0.00 55 1009.4
20260503231002 69 311 3.0 12.0 0.00 0.00 0.00 56 1009.4
20260503230501 69 36 6.0 12.0 0.00 0.00 0.00 55 1009.5
20260503230001 69 38 3.0 12.0 0.00 0.00 0.00 54 1009.5
20260503225600 69 19 4.0 11.0 0.00 0.00 0.00 55 1009.6
20260503225501 69 5 5.0 11.0 0.00 0.00 0.00 55 1009.6
20260503225102 69 12 3.0 9.0 0.00 0.00 0.00 56 1009.6
20260503224600 69 94 3.0 11.0 0.00 0.00 0.00 56 1009.8
20260503224059 68 15 3.0 11.0 0.00 0.00 0.00 57 1009.9
20260503223559 69 9 5.0 11.0 0.00 0.00 0.00 57 1010.0
20260503223058 69 341 3.0 10.0 0.00 0.00 0.00 56 1010.0
20260503222557 69 24 4.0 12.0 0.00 0.00 0.00 56 1010.0
20260503222056 69 34 5.0 13.0 0.00 0.00 0.00 56 1010.1
20260503221556 69 51 5.0 13.0 0.00 0.00 0.00 55 1010.3
20260503221057 69 5 5.0 13.0 0.00 0.00 0.00 55 1010.3
20260503220554 69 355 4.0 12.0 0.00 0.00 0.00 54 1010.4
20260503220056 69 344 5.0 12.0 0.00 0.00 0.00 53 1010.5
20260503215553 69 20 5.0 12.0 0.00 0.00 0.00 53 1010.5
20260503215053 69 23 2.0 12.0 0.00 0.00 0.00 54 1010.5
20260503214557 69 5 6.0 10.0 0.00 0.00 0.00 54 1010.5
20260503214059 69 61 4.0 10.0 0.00 0.00 0.00 58 1010.5
20260503213553 68 19 4.0 13.0 0.00 0.00 0.00 60 1010.6
20260503213123 68 338 4.0 13.0 0.00 0.00 0.00 60 1010.6
20260503212554 68 17 2.0 11.0 0.00 0.00 0.00 61 1010.6
20260503212054 68 344 1.0 11.0 0.00 0.00 0.00 60 1010.6
20260503211617 68 350 5.0 11.0 0.00 0.00 0.00 61 1010.7
20260503211051 69 49 3.0 10.0 0.00 0.00 0.00 60 1010.7
20260503210550 69 360 2.0 10.0 0.00 0.00 0.00 60 1010.8
20260503210050 69 49 4.0 10.0 0.00 0.00 0.00 58 1010.8
20260503205550 70 355 1.0 9.0 0.00 0.00 0.00 58 1010.9
20260503205049 70 51 2.0 8.0 0.00 0.00 0.00 59 1010.8
20260503204602 69 308 0.0 11.0 0.00 0.00 0.00 60 1010.9
20260503204047 69 355 1.0 11.0 0.00 0.00 0.00 61 1011.0
20260503203548 68 341 0.0 8.0 0.00 0.00 0.00 61 1011.1
20260503203049 68 5 0.0 7.0 0.00 0.00 0.00 62 1011.1
20260503202547 68 34 0.0 7.0 0.00 0.00 0.00 62 1011.1
20260503202048 68 11 0.0 9.0 0.00 0.00 0.00 63 1011.2
20260503201545 67 5 2.0 9.0 0.00 0.00 0.00 65 1011.2
20260503201044 68 49 1.0 9.0 0.00 0.00 0.00 64 1011.3
20260503200545 69 342 3.0 9.0 0.00 0.00 0.00 63 1011.4
20260503200044 70 5 2.0 8.0 0.00 0.00 0.00 61 1011.4
20260503195542 69 360 0.0 8.0 0.00 0.00 0.00 63 1011.5
20260503195041 68 26 1.0 6.0 0.00 0.00 0.00 63 1011.5
20260503194541 68 44 2.0 7.0 0.00 0.00 0.00 65 1011.7
20260503194040 67 355 0.0 7.0 0.00 0.00 0.00 65 1011.7
20260503193540 68 31 3.0 7.0 0.00 0.00 0.00 64 1011.8
20260503193040 68 10 2.0 7.0 0.00 0.00 0.00 64 1011.8
20260503192537 68 336 0.0 6.0 0.00 0.00 0.00 64 1011.9
20260503192036 68 355 0.0 7.0 0.00 0.00 0.00 66 1011.9
20260503191553 67 360 1.0 7.0 0.00 0.00 0.00 65 1011.9
20260503191035 67 355 0.0 6.0 0.00 0.00 0.00 64 1012.0
20260503190535 67 348 1.0 6.0 0.00 0.00 0.00 66 1012.1
20260503190037 68 12 0.0 0.0 0.00 0.00 0.00 66 1012.1
20260503185537 67 21 0.0 0.0 0.00 0.00 0.00 66 1012.2
20260503185037 67 14 0.0 7.0 0.00 0.00 0.00 67 1012.3
20260503184534 67 360 0.0 7.0 0.00 0.00 0.00 66 1012.3
20260503184034 67 360 1.0 5.0 0.00 0.00 0.00 66 1012.3
20260503183529 66 5 0.0 4.0 0.00 0.00 0.00 69 1012.4
20260503183039 65 57 0.0 5.0 0.00 0.00 0.00 69 1012.4
20260503182528 65 20 0.0 5.0 0.00 0.00 0.00 69 1012.5
20260503182030 65 12 1.0 5.0 0.00 0.00 0.00 69 1012.5
20260503181527 65 60 1.0 6.0 0.00 0.00 0.00 70 1012.5
20260503181027 65 18 2.0 6.0 0.00 0.00 0.00 70 1012.5
20260503180527 65 11 0.0 6.0 0.00 0.00 0.00 71 1012.5
20260503180031 64 18 3.0 8.0 0.00 0.00 0.00 71 1012.5
20260503175526 64 13 3.0 8.0 0.00 0.00 0.00 71 1012.5
20260503175026 63 26 3.0 6.0 0.00 0.00 0.00 72 1012.6
20260503174536 63 9 3.0 8.0 0.00 0.00 0.00 73 1012.7
20260503174026 63 360 2.0 8.0 0.00 0.00 0.00 73 1012.7
20260503173526 63 323 2.0 9.0 0.00 0.00 0.00 72 1012.7
20260503173026 63 51 4.0 9.0 0.00 0.00 0.00 72 1012.7
20260503172525 63 355 1.0 8.0 0.00 0.00 0.00 72 1012.8
20260503172025 63 10 0.0 7.0 0.00 0.00 0.00 72 1012.7
20260503171529 63 15 3.0 7.0 0.00 0.00 0.00 72 1012.8
20260503171029 63 340 2.0 7.0 0.00 0.00 0.00 73 1012.8
20260503170525 62 116 2.0 11.0 0.00 0.00 0.00 74 1012.8
20260503150526 61 24 0.0 0.0 0.00 0.00 0.00 75 1013.0
20260503131016 60 40 2.0 4.0 0.00 0.00 0.00 70 1012.5
20260503130518 59 94 2.0 5.0 0.00 0.00 0.00 71 1012.5
20260503110511 56 142 0.0 2.0 0.00 0.00 0.00 81 1012.8
20260503090106 58 138 0.0 2.0 0.00 0.00 0.00 74 1012.9
20260503081557 60 138 0.0 2.0 0.00 0.00 0.00 67 1012.8
20260503081049 60 138 0.0 3.0 0.00 0.00 0.00 66 1012.8
20260503080551 60 138 1.0 3.0 0.00 0.00 0.00 65 1012.8
20260503072543 63 116 0.0 2.0 0.00 0.00 0.00 57 1012.7
20260503072041 63 117 0.0 2.0 0.00 0.00 0.00 59 1012.6
20260503071602 63 113 0.0 1.0 0.00 0.00 0.00 58 1012.7
20260503071039 63 113 0.0 2.0 0.00 0.00 0.00 57 1012.6
20260503070538 64 113 0.0 2.0 0.00 0.00 0.00 59 1012.6
20260503055036 67 89 0.0 3.0 0.00 0.00 0.00 49 1012.5
20260503054551 68 89 0.0 5.0 0.00 0.00 0.00 49 1012.5
20260503054034 68 92 1.0 5.0 0.00 0.00 0.00 49 1012.5
20260503053535 68 69 0.0 6.0 0.00 0.00 0.00 49 1012.5
20260503053034 68 44 1.0 6.0 0.00 0.00 0.00 48 1012.5
20260503052533 68 58 0.0 4.0 0.00 0.00 0.00 49 1012.6
20260503052033 68 28 1.0 4.0 0.00 0.00 0.00 49 1012.7
20260503051544 68 76 0.0 7.0 0.00 0.00 0.00 49 1012.6
20260503051037 68 82 1.0 7.0 0.00 0.00 0.00 49 1012.6
20260503050533 68 63 1.0 5.0 0.00 0.00 0.00 49 1012.6
20260503050033 68 59 1.0 4.0 0.00 0.00 0.00 50 1012.5
20260503045532 68 28 0.0 4.0 0.00 0.00 0.00 50 1012.5
20260503045034 68 36 0.0 4.0 0.00 0.00 0.00 51 1012.5
20260503044534 68 84 0.0 3.0 0.00 0.00 0.00 50 1012.4
20260503044032 68 45 0.0 5.0 0.00 0.00 0.00 50 1012.4
20260503043532 68 45 2.0 5.0 0.00 0.00 0.00 50 1012.3
20260503043032 68 5 1.0 6.0 0.00 0.00 0.00 51 1012.3
20260503042530 68 62 2.0 6.0 0.00 0.00 0.00 51 1012.3
20260503042030 67 11 2.0 5.0 0.00 0.00 0.00 52 1012.2
20260503041533 67 324 0.0 5.0 0.00 0.00 0.00 52 1012.1
20260503041030 67 44 2.0 5.0 0.00 0.00 0.00 53 1012.0
20260503040534 67 31 1.0 7.0 0.00 0.00 0.00 53 1012.1
20260503040029 67 344 3.0 7.0 0.00 0.00 0.00 54 1011.9
20260503035533 67 45 3.0 7.0 0.00 0.00 0.00 55 1011.9
20260503035030 67 110 2.0 7.0 0.00 0.00 0.00 55 1011.8
20260503034529 67 91 1.0 6.0 0.00 0.00 0.00 56 1011.8
20260503034029 67 130 2.0 9.0 0.00 0.00 0.00 56 1011.8
20260503033529 67 77 3.0 10.0 0.00 0.00 0.00 57 1011.7
20260503033029 66 39 2.0 6.0 0.00 0.00 0.00 58 1011.7
20260503032527 66 138 2.0 7.0 0.00 0.00 0.00 60 1011.6
20260503032028 65 89 0.0 3.0 0.00 0.00 0.00 61 1011.7
20260503031532 65 126 0.0 4.0 0.00 0.00 0.00 62 1011.6
20260503031028 65 12 0.0 4.0 0.00 0.00 0.00 62 1011.5
20260503030527 66 333 0.0 9.0 0.00 0.00 0.00 62 1011.5
20260503030033 66 348 1.0 9.0 0.00 0.00 0.00 62 1011.5
20260503025527 66 333 2.0 10.0 0.00 0.00 0.00 61 1011.5
20260503025027 66 11 3.0 9.0 0.00 0.00 0.00 61 1011.5
20260503024532 66 19 0.0 6.0 0.00 0.00 0.00 62 1011.5
20260503024027 66 360 0.0 8.0 0.00 0.00 0.00 62 1011.5
20260503023526 66 327 2.0 9.0 0.00 0.00 0.00 61 1011.5
20260503023026 67 56 2.0 8.0 0.00 0.00 0.00 61 1011.5
20260503022525 67 11 2.0 9.0 0.00 0.00 0.00 62 1011.4
20260503022026 66 64 2.0 9.0 0.00 0.00 0.00 62 1011.5
20260503021525 66 355 0.0 11.0 0.00 0.00 0.00 62 1011.5
20260503021026 66 61 3.0 10.0 0.00 0.00 0.00 62 1011.5
20260503020529 66 308 2.0 9.0 0.00 0.00 0.00 63 1011.6
20260503020025 67 331 1.0 8.0 0.00 0.00 0.00 62 1011.5
20260503015525 67 5 3.0 9.0 0.00 0.00 0.00 61 1011.6
20260503015025 68 43 4.0 11.0 0.00 0.00 0.00 60 1011.7
20260503014524 68 351 2.0 11.0 0.00 0.00 0.00 60 1011.7
20260503014024 68 355 3.0 8.0 0.00 0.00 0.00 59 1011.7
20260503013523 69 295 0.0 9.0 0.00 0.00 0.00 59 1011.7
20260503013033 69 348 1.0 10.0 0.00 0.00 0.00 59 1011.8
20260503012525 69 329 5.0 10.0 0.00 0.00 0.00 58 1011.8
20260503012026 69 15 3.0 9.0 0.00 0.00 0.00 58 1011.8
20260503011522 69 13 3.0 10.0 0.00 0.00 0.00 57 1011.8
20260503011025 69 355 2.0 10.0 0.00 0.00 0.00 57 1011.8
20260503010520 68 336 3.0 11.0 0.00 0.00 0.00 57 1011.8
20260503010019 68 53 4.0 11.0 0.00 0.00 0.00 57 1011.8
20260503005518 68 10 3.0 10.0 0.00 0.00 0.00 56 1011.9
20260503005018 68 355 2.0 9.0 0.00 0.00 0.00 57 1011.9
20260503004516 68 325 4.0 9.0 0.00 0.00 0.00 57 1012.0
20260503004016 67 344 1.0 10.0 0.00 0.00 0.00 58 1012.0
20260503003516 67 5 5.0 10.0 0.00 0.00 0.00 58 1012.0
20260503003022 67 325 4.0 10.0 0.00 0.00 0.00 58 1012.0
20260503002516 68 20 2.0 11.0 0.00 0.00 0.00 59 1012.0
20260503002016 68 327 4.0 11.0 0.00 0.00 0.00 59 1012.0
20260503001515 67 346 4.0 11.0 0.00 0.00 0.00 60 1012.1
20260503001015 67 355 3.0 11.0 0.00 0.00 0.00 62 1012.0
20260503000518 67 323 3.0 10.0 0.00 0.00 0.00 62 1012.1
20260503000016 67 336 4.0 11.0 0.00 0.00 0.00 62 1012.1
20260502235513 67 360 3.0 11.0 0.00 0.00 0.00 62 1012.1
20260502235012 67 314 3.0 9.0 0.00 0.00 0.00 64 1012.2
20260502234518 67 337 2.0 10.0 0.00 0.00 0.00 65 1012.3